Flag for Germany Weather past 2 weeks in Wiesbaden, Hesse, Germany

Now
56 °F

Passing clouds.


Feels Like: 54 °F
Forecast: 38 / 60 °F
Wind: 10 mph from East

Location: Wiesbaden Airport

Current Time: Apr 18, 2015 at 4:16:17 PM

Latest Report: Apr 18, 2015 at 3:58 PM


Visibility: N/A

Pressure: 30.27 "Hg

Humidity: 36%

Dew point: 29 °F

Location of WiesbadenLocation

Historic Weather in Wiesbaden — Graph

°F

Wiesbaden temperature yesterday

Maximum temperature yesterday: 61 °F (at 3:58 PM)
Minimum temperature yesterday: 45 °F (at 11:58 PM)
Average temperature yesterday: 53 °F

Past Weeks' High & Low Weather Summary

 TemperatureHumidityPressure
High76 °F (Apr 15, 3:58 PM)97% (Apr 10, 6:58 AM)30.66 "Hg (Apr 10, 6:58 AM)
Low31 °F (Apr 7, 6:58 AM)31% (Apr 15, 5:58 PM)29.85 "Hg (Apr 16, 6:58 PM)
Average51 °F62%30.25 "Hg
* Reported Apr 3 2:58 PM — Apr 18 2:58 PM, Wiesbaden, Weather by CustomWeather, © 2015

Note: Actual official high and low records may vary slightly from our data, if they occured in-between our weather recording intervals... More about our weather records

Advertising

Wiesbaden weather history for previous 24 hours

 ConditionsComfort  
Time TempWeatherWind HumidityBarometerVisibility
2:58 PM
Sat, Apr 18
55 °FScattered clouds.12 mph39%30.29 "HgN/A
1:58 PM55 °FSunny.10 mph41%30.29 "HgN/A
12:59 PM54 °FPartly sunny.9 mph44%30.29 "HgN/A
11:58 AM53 °FPassing clouds.10 mph44%30.30 "HgN/A
10:58 AM52 °FPartly sunny.7 mph47%30.30 "HgN/A
9:58 AM50 °FSunny.12 mph50%30.28 "HgN/A
8:58 AM48 °FSunny.10 mph61%30.27 "HgN/A
7:58 AM43 °FPartly sunny.8 mph71%30.27 "HgN/A
6:58 AM41 °FClear.8 mph76%30.24 "HgN/A
5:58 AM41 °FClear.9 mph73%30.21 "HgN/A
4:58 AM41 °FClear.9 mph70%30.22 "HgN/A
3:58 AM42 °FClear.7 mph69%30.21 "HgN/A
2:58 AM43 °FClear.5 mph61%30.21 "HgN/A
1:58 AM43 °FClear.8 mph61%30.20 "HgN/A
12:58 AM45 °FPassing clouds.7 mph57%30.18 "HgN/A
11:58 PM
Fri, Apr 17
45 °FClear.5 mph58%30.16 "HgN/A
10:58 PM46 °FClear.6 mph53%30.13 "HgN/A
9:58 PM49 °FClear.6 mph49%30.12 "HgN/A
8:58 PM51 °FSunny.9 mph47%30.10 "HgN/A
7:58 PM54 °FSunny.8 mph44%30.06 "HgN/A
6:58 PM55 °FSunny.12 mph44%30.02 "HgN/A
5:58 PM58 °FPartly sunny.13 mph42%29.99 "HgN/A
4:58 PM61 °FSunny.5 mph39%29.98 "HgN/A
Weather by CustomWeather, © 2015

See weather overviewHow to use our weather pages